Regional Weather Roundup
Issued by NWS Cleveland, OH

Home | Current Version | Previous Version | Graphics & Text | Print | Product List | Glossary On
Versions: 1 2 3 4 5 6 7 8 9 10 11 12 13 14 15 16 17 18 19 20 21 22 23 24 25 26 27 28 29 30 31 32 33 34 35 36 37 38 39 40 41 42 43 44 45 46 47 48 49 50
000
ASUS41 KCLE 270910
RWRCLE
OHIO REGIONAL WEATHER ROUNDUP
NATIONAL WEATHER SERVICE WILMINGTON, OH
500 AM EDT MON APR 27 2015

NOTE: "FAIR" INDICATES FEW OR NO CLOUDS BELOW 12,000 FEET WITH NO
SIGNIFICANT WEATHER AND/OR OBSTRUCTIONS TO VISIBILITY.

OHZ001>008-015>018-024>027-034-035-043-044-271000-
   NORTHWEST OHIO

CITY           SKY/WX    TMP DP  RH WIND       PRES   REMARKS
DEFIANCE       CLEAR     38  33  82 N3        29.95R
FINDLAY        CLEAR     41  32  70 CALM      29.91F
TOLEDO EXPRESS MOCLDY    38  32  79 SW3       29.92F
TOLEDO EXEC    CLOUDY    41  33  73 W5        29.93F
LIMA           CLEAR     39  32  76 E3        29.92S
$$

OHZ009>014-019>023-028>033-038-089-271000-
   NORTHEAST OHIO

CITY           SKY/WX    TMP DP  RH WIND       PRES   REMARKS
CLE-HOPKINS    MOCLDY    40  33  76 W7        29.90F
CLE-LAKEFRONT  MOCLDY    42  35  76 W15       29.87F
CUY CO. ARPT   NOT AVBL
LORAIN-ELYRIA  MOCLDY    36  33  89 W5        29.90S
ASHTABULA      CLOUDY    39  34  82 W6        29.84F
AKRON-CANTON   PTCLDY    34  29  82 NW7       29.86F WCI  28
WOOSTER        CLEAR     34  30  85 NW8       29.88F WCI  27
MANSFIELD      CLEAR     36  31  82 W6        29.89F
YOUNGSTOWN     CLOUDY    36  32  85 W6        29.83F
$$

OHZ042-051>053-060>062-070>072-077>081-271000-
  SOUTHWEST OHIO

CITY           SKY/WX    TMP DP  RH WIND       PRES   REMARKS
CINC-COVINGTON PTCLDY    36  33  89 W5        29.91S
CINC-LUNKEN    CLEAR     37  36  96 CALM      29.93S
HAMILTON       CLEAR     36  34  92 CALM      29.92S
DAYTON         PTCLDY    41  33  73 NE7       29.91F
WRIGHT-PAT AFB CLEAR     36  35  96 CALM      29.91S
DAYTON GENERAL CLEAR     37  33  85 CALM      29.90S
WILMINGTON     PTCLDY    37  29  72 NE5       29.90S
$$

OHZ036-037-039>041-045>050-054>059-063>069-073>076-082>088-271000-
  CENTRAL AND SOUTHEAST OHIO

CITY           SKY/WX    TMP DP  RH WIND       PRES   REMARKS
COLUMBUS       PTCLDY    37  31  78 N7        29.89S
OSU AIRPORT    CLOUDY    40  31  70 N8        29.90S
BOLTON FIELD   CLEAR     35  30  82 CALM      29.90S
RICKENBACK AFB CLEAR     38  31  76 NW3       29.90S
NEWARK         CLEAR     35  30  82 CALM      29.89S
MARION         CLEAR     37  30  75 N3        29.91F
LANCASTER      CLEAR     33  31  92 CALM      29.89F
ZANESVILLE     CLEAR     36  28  73 N7        29.88R
NEW PHILLY     CLEAR     39  30  70 NW5       29.88S
$$



USA.gov is the U.S. government's official web portal to all federal, state and local government web resources and services.